PSLV R/B, 41791

Orbit data source: Space-Track

PSLV R/B, 41791 is space debris in SSO originally from a launch on Mon, 26 Sep 2016 UTC launched from the Sirharikota (SRI). Debris objects in space refer to the collection of defunct objects orbiting the Earth. Examples of debris include non-operational satellites, rocket bodies, and fragments generated from explosions, collisions, or faulty payload assembly.

Loading next visibility...
Identifier
41791, 2016-059J
Orbit
SSO
Last TLE update
6 hours ago
Origin
Manufacturer
VSSC/LPSC
Mission
Spacecraft
Bus & Motor
PS-4, Unknown motor
Mass
920 kg wet, 920 kg dry
Launch date (UTC)
2016-09-26 (9 years ago)
Launch vehicle
Unknown
Launch site
Sirharikota (SRI)
Object type
Payload
Rocket body
Debris
Shape & HBR
Cyl + Cyl + 2 Nozzle, 3.238 m
Radar Cross Section
6.185 m², Large (>1 m²)

Expand to show TLE details & history

TLE from 6 hours ago
0 PSLV R/B
1 41791U 16059J   25183.60584013  .00000318  00000-0  70090-4 0  9991
2 41791  97.8522 206.7183 0039902 313.4935  46.2952 14.63203430467545
Epoch: 2025-07-02T14:32Z
TLE epoch observation values (Epoch: 2025-07-02T14:32:24.587Z)
Latitude
-0.0001°
Longitude
67.73133°
Altitude
666.437 km
Speed
7.534 km/s
True Right ascension
13h 46m 52s
True Declination
0° 00' 00"
Sunlit
Object was in daylight at epoch
Visualization orbit readout
Latitude
-28.91793°
Longitude
72.33232°
Altitude
666.948 km
Speed
7.537 km/s
Apparent Right ascension
16h 53m 04s
Apparent Declination
-45° 53' 16"
Sunlit
Object is in full shadow
Visualization observer readout
Local Sidereal Time
08:42:31
Azimuth
117.857° SE
Elevation
-48.472°
Doppler factor
1
Orbital elements
Apogee altitude
708.073 km
Perigee altitude
651.747 km
Semi-major axis
7,058.047 km
Eccentricity
0.00399
Inclination
97.8522°
RAAN
206.7183°
Arg. of periapsis
313.4935°
True anomaly
Unknown
Mean anomaly
46.2952°
Eccentric anomaly
Unknown
Mean motion
3.6603 °/min
Orbital period
98.35 mins
BSTAR
0.00007009
Loading maneuver chart data...
Loading SW <> Apogee altitude chart data...
Loading historical data...
Loading historical data...
Loading historical data...
Loading historical data...
Loading historical data...
Loading historical data...
Loading historical data...

PSLV R/B Visibility forecast

Observer location: undefined°, undefined°

Span
Click to sort rows by Start time (UTC) header in descending order
Start Az.
Max El. time (UTC)
Max El. Az.
Max El.
End time (UTC)
End Az.
6 mins2025-07-03 00:32:24.018Z109.435° ESE2025-07-03 00:35:24.018Z63.743° ENE19.814°2025-07-03 00:38:24.018Z20.911° NNE
7 mins2025-07-03 02:09:24.018Z202.957° SW2025-07-03 02:12:24.018Z263.464° W31.453°2025-07-03 02:16:24.018Z329.316° NNW
7 mins2025-07-03 14:06:24.018Z28.065° NE2025-07-03 14:09:24.018Z93.171° ESE39.321°2025-07-03 14:13:24.018Z175.409° S
|